Time,TemperatureF,DewpointF,PressureIn,WindDirection,WindDirectionDegrees,WindSpeedMPH,WindSpeedGustMPH,Humidity,HourlyPrecipIn,Conditions,Clouds,dailyrainin,SolarRadiationWatts/m^2,SoftwareType,DateUTC
2013-12-22 00:11:00,10.0,5.0,-100.00,NNW,342,3.0,8.0,81,0.00,,,0.01,0.000000,,2013-12-22 07:11:00,
2013-12-22 00:22:00,10.0,5.0,-100.00,NNW,342,3.0,8.0,81,0.00,,,0.01,0.000000,,2013-12-22 07:22:00,
2013-12-22 00:32:00,10.0,5.0,-100.00,NNW,342,3.0,8.0,81,0.00,,,0.01,0.000000,,2013-12-22 07:32:00,
2013-12-22 01:11:00,8.0,4.0,-100.00,North,350,3.0,8.0,82,0.00,,,0.01,0.000000,,2013-12-22 08:11:00,
2013-12-22 01:22:00,8.0,4.0,-100.00,North,350,3.0,8.0,82,0.00,,,0.01,0.000000,,2013-12-22 08:22:00,
2013-12-22 01:32:00,8.0,4.0,-100.00,North,350,3.0,8.0,82,0.00,,,0.01,0.000000,,2013-12-22 08:32:00,
2013-12-22 02:12:00,5.0,1.0,-100.00,North,4,1.0,4.0,84,0.00,,,0.01,0.000000,,2013-12-22 09:12:00,
2013-12-22 02:22:00,5.0,1.0,-100.00,North,4,1.0,4.0,84,0.00,,,0.01,0.000000,,2013-12-22 09:22:00,
2013-12-22 02:33:00,5.0,1.0,-100.00,North,4,1.0,4.0,84,0.00,,,0.01,0.000000,,2013-12-22 09:33:00,
2013-12-22 03:13:00,6.0,1.0,-100.00,North,8,2.0,5.0,80,0.00,,,0.01,0.000000,,2013-12-22 10:13:00,
2013-12-22 03:23:00,6.0,1.0,-100.00,North,8,2.0,5.0,80,0.00,,,0.01,0.000000,,2013-12-22 10:23:00,
2013-12-22 03:33:00,6.0,1.0,-100.00,North,8,2.0,5.0,80,0.00,,,0.01,0.000000,,2013-12-22 10:33:00,
2013-12-22 04:12:00,7.0,1.0,-100.00,North,355,2.0,4.0,76,0.00,,,0.01,0.000000,,2013-12-22 11:12:00,
2013-12-22 04:22:00,7.0,1.0,-100.00,North,355,2.0,4.0,76,0.00,,,0.01,0.000000,,2013-12-22 11:22:00,
2013-12-22 04:33:00,7.0,1.0,-100.00,North,355,2.0,4.0,76,0.00,,,0.01,0.000000,,2013-12-22 11:33:00,
2013-12-22 05:12:00,8.0,2.0,-100.00,North,358,2.0,5.0,76,0.00,,,0.01,0.000000,,2013-12-22 12:12:00,
2013-12-22 05:22:00,8.0,2.0,-100.00,North,358,2.0,5.0,76,0.00,,,0.01,0.000000,,2013-12-22 12:22:00,
2013-12-22 05:32:00,8.0,2.0,-100.00,North,358,2.0,5.0,76,0.00,,,0.01,0.000000,,2013-12-22 12:32:00,
2013-12-22 06:12:00,8.0,2.0,-100.00,North,358,2.0,4.0,77,0.00,,,0.01,0.000000,,2013-12-22 13:12:00,
2013-12-22 06:22:00,8.0,2.0,-100.00,North,358,2.0,4.0,77,0.00,,,0.01,0.000000,,2013-12-22 13:22:00,
2013-12-22 06:32:00,8.0,2.0,-100.00,North,358,2.0,4.0,77,0.00,,,0.01,0.000000,,2013-12-22 13:32:00,
2013-12-22 07:12:00,8.0,2.0,-100.00,West,275,3.0,6.0,77,0.00,,,0.01,0.000000,,2013-12-22 14:12:00,
2013-12-22 07:22:00,8.0,2.0,-100.00,West,275,3.0,6.0,77,0.00,,,0.01,0.000000,,2013-12-22 14:22:00,
2013-12-22 07:32:00,8.0,2.0,-100.00,West,275,3.0,6.0,77,0.00,,,0.01,0.000000,,2013-12-22 14:32:00,
2013-12-22 08:11:00,6.0,1.0,-100.00,North,-999,0.0,7.0,80,0.00,,,0.01,1.000000,,2013-12-22 15:11:00,
2013-12-22 08:22:00,6.0,1.0,-100.00,North,-999,0.0,7.0,80,0.00,,,0.01,1.000000,,2013-12-22 15:22:00,
2013-12-22 08:33:00,6.0,1.0,-100.00,North,-999,0.0,7.0,80,0.00,,,0.01,1.000000,,2013-12-22 15:33:00,
2013-12-22 09:13:00,12.0,6.0,-100.00,North,-999,0.0,4.0,76,0.00,,,0.01,44.000000,,2013-12-22 16:13:00,
2013-12-22 09:23:00,12.0,6.0,-100.00,North,-999,0.0,4.0,76,0.00,,,0.01,44.000000,,2013-12-22 16:23:00,
2013-12-22 09:33:00,12.0,6.0,-100.00,North,-999,0.0,4.0,76,0.00,,,0.01,44.000000,,2013-12-22 16:33:00,
2013-12-22 10:12:00,17.0,7.0,-100.00,NW,322,3.0,6.0,65,0.00,,,0.01,281.000000,,2013-12-22 17:12:00,
2013-12-22 10:22:00,17.0,7.0,-100.00,NW,322,3.0,6.0,65,0.00,,,0.01,281.000000,,2013-12-22 17:22:00,
2013-12-22 10:33:00,17.0,7.0,-100.00,NW,322,3.0,6.0,65,0.00,,,0.01,281.000000,,2013-12-22 17:33:00,
2013-12-22 11:12:00,17.0,4.0,-100.00,NW,307,6.0,12.0,57,0.00,,,0.01,302.000000,,2013-12-22 18:12:00,
2013-12-22 11:22:00,17.0,4.0,-100.00,NW,307,6.0,12.0,57,0.00,,,0.01,302.000000,,2013-12-22 18:22:00,
2013-12-22 11:33:00,17.0,4.0,-100.00,NW,307,6.0,12.0,57,0.00,,,0.01,302.000000,,2013-12-22 18:33:00,
2013-12-22 12:12:00,17.0,8.0,-100.00,NW,324,5.0,11.0,67,0.00,,,0.01,116.000000,,2013-12-22 19:12:00,
2013-12-22 12:22:00,17.0,8.0,-100.00,NW,324,5.0,11.0,67,0.00,,,0.01,116.000000,,2013-12-22 19:22:00,
2013-12-22 12:32:00,17.0,8.0,-100.00,NW,324,5.0,11.0,67,0.00,,,0.01,116.000000,,2013-12-22 19:32:00,
2013-12-22 13:11:00,17.0,7.0,-100.00,NW,323,5.0,12.0,65,0.00,,,0.00,181.000000,,2013-12-22 20:11:00,
2013-12-22 13:22:00,17.0,7.0,-100.00,NW,323,5.0,12.0,65,0.00,,,0.00,181.000000,,2013-12-22 20:22:00,
2013-12-22 13:32:00,17.0,7.0,-100.00,NW,323,5.0,12.0,65,0.00,,,0.00,181.000000,,2013-12-22 20:32:00,
2013-12-22 14:12:00,14.0,6.0,-100.00,NW,325,5.0,14.0,71,0.00,,,0.00,79.000000,,2013-12-22 21:12:00,
2013-12-22 14:22:00,14.0,6.0,-100.00,NW,325,5.0,14.0,71,0.00,,,0.00,79.000000,,2013-12-22 21:22:00,
2013-12-22 14:33:00,14.0,6.0,-100.00,NW,325,5.0,14.0,71,0.00,,,0.00,79.000000,,2013-12-22 21:33:00,
2013-12-22 15:13:00,13.0,4.0,-100.00,NW,323,5.0,14.0,66,0.00,,,0.00,76.000000,,2013-12-22 22:13:00,
2013-12-22 15:23:00,13.0,4.0,-100.00,NW,323,5.0,14.0,66,0.00,,,0.00,76.000000,,2013-12-22 22:23:00,
2013-12-22 15:33:00,13.0,4.0,-100.00,NW,323,5.0,14.0,66,0.00,,,0.00,76.000000,,2013-12-22 22:33:00,
2013-12-22 16:12:00,11.0,3.0,-100.00,NW,322,4.0,14.0,70,0.00,,,0.00,28.000000,,2013-12-22 23:12:00,
2013-12-22 16:22:00,11.0,3.0,-100.00,NW,322,4.0,14.0,70,0.00,,,0.00,28.000000,,2013-12-22 23:22:00,
2013-12-22 16:33:00,11.0,3.0,-100.00,NW,322,4.0,14.0,70,0.00,,,0.00,28.000000,,2013-12-22 23:33:00,
2013-12-22 17:11:00,6.0,-1.0,-100.00,NNW,343,5.0,10.0,72,0.00,,,0.00,7.000000,,2013-12-23 00:11:00,
2013-12-22 17:22:00,6.0,-1.0,-100.00,NNW,343,5.0,10.0,72,0.00,,,0.00,7.000000,,2013-12-23 00:22:00,
2013-12-22 17:32:00,6.0,-1.0,-100.00,NNW,343,5.0,10.0,72,0.00,,,0.00,7.000000,,2013-12-23 00:32:00,
2013-12-22 18:11:00,3.0,-5.0,-100.00,NNW,347,4.0,9.0,70,0.00,,,0.00,1.000000,,2013-12-23 01:11:00,
2013-12-22 18:22:00,3.0,-5.0,-100.00,NNW,347,4.0,9.0,70,0.00,,,0.00,1.000000,,2013-12-23 01:22:00,
2013-12-22 18:32:00,3.0,-5.0,-100.00,NNW,347,4.0,9.0,70,0.00,,,0.00,1.000000,,2013-12-23 01:32:00,
2013-12-22 19:12:00,3.0,-5.0,-100.00,NNW,329,3.0,9.0,70,0.00,,,0.00,0.000000,,2013-12-23 02:12:00,
2013-12-22 19:21:00,3.0,-5.0,-100.00,NNW,329,3.0,9.0,70,0.00,,,0.00,0.000000,,2013-12-23 02:21:00,
2013-12-22 19:32:00,3.0,-5.0,-100.00,NNW,329,3.0,9.0,70,0.00,,,0.00,0.000000,,2013-12-23 02:32:00,
2013-12-22 20:12:00,2.0,-6.0,-100.00,NW,309,5.0,13.0,69,0.00,,,0.00,0.000000,,2013-12-23 03:12:00,
2013-12-22 20:22:00,2.0,-6.0,-100.00,NW,309,5.0,13.0,69,0.00,,,0.00,0.000000,,2013-12-23 03:22:00,
2013-12-22 20:33:00,2.0,-6.0,-100.00,NW,309,5.0,13.0,69,0.00,,,0.00,0.000000,,2013-12-23 03:33:00,
2013-12-22 21:13:00,1.0,-7.0,-100.00,NNW,329,4.0,9.0,69,0.00,,,0.00,0.000000,,2013-12-23 04:13:00,
2013-12-22 21:23:00,1.0,-7.0,-100.00,NNW,329,4.0,9.0,69,0.00,,,0.00,0.000000,,2013-12-23 04:23:00,
2013-12-22 21:33:00,1.0,-7.0,-100.00,NNW,329,4.0,9.0,69,0.00,,,0.00,0.000000,,2013-12-23 04:33:00,
2013-12-22 22:12:00,0.0,-7.0,-100.00,NW,320,4.0,12.0,71,0.00,,,0.00,0.000000,,2013-12-23 05:12:00,
2013-12-22 22:23:00,0.0,-7.0,-100.00,NW,320,4.0,12.0,71,0.00,,,0.00,0.000000,,2013-12-23 05:23:00,
2013-12-22 22:33:00,0.0,-7.0,-100.00,NW,320,4.0,12.0,71,0.00,,,0.00,0.000000,,2013-12-23 05:33:00,
2013-12-22 23:12:00,0.0,-6.0,-100.00,WNW,303,7.0,14.0,74,0.00,,,0.00,0.000000,,2013-12-23 06:12:00,
2013-12-22 23:22:00,0.0,-6.0,-100.00,WNW,303,7.0,14.0,74,0.00,,,0.00,0.000000,,2013-12-23 06:22:00,
2013-12-22 23:32:00,0.0,-6.0,-100.00,WNW,303,7.0,14.0,74,0.00,,,0.00,0.000000,,2013-12-23 06:32:00,